Fort Lewis, WA

11:48 PM PDT on June 26, 2017 (GMT -0700)
Gray Army Air Field

Weather History for KGRF - May, 2014

Change the Weather History Date:

Wednesday, May 14, 2014

  Actual Average Record
Temperature  
Mean Temperature 65 °F -  
Max Temperature 83 °F 62 °F 83 °F (2014)
Min Temperature 47 °F 42 °F 33 °F (2006)
Growing Degree Days 15 (Base 50)    
Moisture  
Dew Point 47 °F    
Average Humidity 53    
Maximum Humidity 90    
Minimum Humidity 27    
Precipitation  
Precipitation 0.00 in - - ()
Sea Level Pressure  
Sea Level Pressure 30.23 in    
Wind  
Wind Speed 4 mph (NE)    
Max Wind Speed 12 mph    
Max Gust Speed -    
Visibility 10 miles    
Events      
Averages and records for this station are not official NWS values.
T = Trace of Precipitation, MM = Missing Value Source: NWS Daily Summary

Daily Weather History Graph

Daily Weather History Graph

Search for Another Location

Airport or City:

Trip Planner

Search our weather history database for the weather conditions in past years. The results will help you decide how hot, cold, wet, or windy it might be!

Date:

Astronomy

May. 14, 2014 Rise Set
Actual Time 5:35 AM PDT 8:38 PM PDT
Civil Twilight 4:59 AM PDT 9:14 PM PDT
Nautical Twilight 4:13 AM PDT 10:01 PM PDT
Astronomical Twilight 3:17 AM PDT 10:58 PM PDT
Moon 8:48 PM PDT (5/14) 5:42 AM PDT (5/14)
Length of Visible Light 16h 14m
Length of Day
15h 02m
Full, 100% of the Moon is Illuminated
May 14
Full
May 14
Full
May 21
Last Quarter
May 28
New
Jun 5
First Quarter

Hourly Weather History & Observations

Time (PDT) Temp. Dew Point Humidity Pressure Visibility Wind Dir Wind Speed Gust Speed Precip Events Conditions
12:58 AM 57.2 °F 45.7 °F 65% 30.32 in 10.0 mi Calm Calm - N/A   Clear
1:58 AM 53.8 °F 45.9 °F 75% 30.32 in 10.0 mi SE 4.6 mph - N/A   Clear
2:58 AM 50.2 °F 45.1 °F 83% 30.32 in 10.0 mi SE 4.6 mph - N/A   Clear
4:58 AM 47.1 °F 44.2 °F 90% 30.31 in 10.0 mi ESE 3.5 mph - N/A   Clear
5:58 AM 49.5 °F 45.0 °F 84% 30.31 in 10.0 mi ESE 1.2 mph - N/A   Clear
6:58 AM 52.2 °F 46.9 °F 82% 30.32 in 10.0 mi ENE 1.2 mph - N/A   Clear
7:58 AM 58.5 °F 49.1 °F 71% 30.32 in 7.0 mi Calm Calm - N/A   Clear
8:58 AM 63.7 °F 50.0 °F 61% 30.31 in 10.0 mi Variable 2.3 mph - N/A   Clear
9:58 AM 68.5 °F 50.0 °F 52% 30.30 in 10.0 mi WNW 3.5 mph - N/A   Clear
10:58 AM 71.6 °F 49.6 °F 46% 30.29 in 10.0 mi Variable 3.5 mph - N/A   Clear
11:58 AM 75.2 °F 49.6 °F 41% 30.28 in 10.0 mi NW 6.9 mph - N/A   Clear
1:58 PM 79.7 °F 46.9 °F 32% 30.23 in 10.0 mi North 6.9 mph - N/A   Clear
2:58 PM 80.6 °F 47.5 °F 31% 30.22 in 10.0 mi NNE 10.4 mph - N/A   Clear
3:58 PM 82.0 °F 46.2 °F 28% 30.20 in 10.0 mi North 11.5 mph - N/A   Clear
4:58 PM 83.1 °F 46.2 °F 27% 30.18 in 10.0 mi NNW 11.5 mph - N/A   Clear
5:58 PM 82.9 °F 46.8 °F 28% 30.15 in 10.0 mi North 9.2 mph - N/A   Clear
6:58 PM 81.0 °F 46.2 °F 29% 30.13 in 10.0 mi North 9.2 mph - N/A   Clear
7:58 PM 77.0 °F 47.1 °F 35% 30.13 in 10.0 mi North 6.9 mph - N/A   Clear
8:58 PM 73.4 °F 46.4 °F 38% 30.13 in 10.0 mi North 6.9 mph - N/A   Clear
9:58 PM 70.2 °F 47.5 °F 44% 30.13 in 10.0 mi East 1.2 mph - N/A   Clear
10:58 PM 62.4 °F 49.3 °F 62% 30.12 in 10.0 mi SE 3.5 mph - N/A   Clear
11:58 PM 62.1 °F 50.2 °F 65% 30.11 in 10.0 mi East 2.3 mph - N/A   Clear